Content
SEND FEEDBACK

Daily
Averages
Monthly
Summary
France

LYON, FRANCE


Home > Europe > France
Elevation: 659 feet     Latitude: 45 43N     Longitude: 004 57E

WEATHER
 
SELECT A DAY
Number of Records: 153,289;   Date Range: 7/1/96 - 7/28/14
 
SHARE

PRINT THIS DATA

[ ← Previous Day ]
WEATHER ALMANAC - JANUARY 18, 2013
[ Next Day → ]
[ °C ]   °F
Weather ElementAverageHighLow
Temperature27.3 °F30.2 °F (2:30 pm)24.8 °F (2:30 am)
Dewpoint19.9 °F24.8 °F (11:00 pm)17.6 °F (2:00 am)
Humidity73.9 %80 % (5:00 am)64 % (2:30 pm)
Barometer29.70 in29.92 in (12:30 am)29.47 in (9:00 pm)
Wind Speed3.9 mph10.4 mph (12:30 am)
Weather ElementAverage
Visibility5 mi
Wind DirectionSSE (143.2 °)

Weather ElementTotal
Precipitation---
Heating Degree Days37.5 (Base 65)
Averaged from 47 records on January 18, 2013
WEATHER CONDITIONS BREAKOUT
WIND DIRECTION BREAKOUT
WEATHER BY HOUR - JANUARY 18, 2013
[ °C ]   °F
Local TimeTemperatureDewpointHumidityBarometerVisibilityWind DirectionWind SpeedGust SpeedPrecipitationEventsConditions
12:30 AM26.6 °F19.4 °F74 %29.92 in6.2 miNNW (340°)10.4 mph
1:00 AM26.6 °F19.4 °F74 %29.92 in6.2 miNNW (330°)9.2 mph
1:30 AM26.6 °F19.4 °F74 %29.89 in6.2 miNNW (340°)9.2 mphPartly Cloudy
2:00 AM26.6 °F17.6 °F69 %29.89 in6.2 miNNW (340°)8.1 mph
2:30 AM24.8 °F17.6 °F74 %29.89 in6.2 miNorth (350°)5.8 mphPartly Cloudy
3:00 AM24.8 °F17.6 °F74 %29.89 in6.2 miNorth (360°)3.5 mphMostly Cloudy
3:30 AM26.6 °F17.6 °F69 %29.86 in6.2 miNorth (360°)5.8 mphOvercast
4:00 AM26.6 °F17.6 °F69 %29.86 in6.2 miNorth (360°)5.8 mphOvercast
4:30 AM26.6 °F19.4 °F74 %29.83 in6.2 miNorth (360°)3.5 mphOvercast
5:00 AM24.8 °F19.4 °F80 %29.83 in5.6 miNorth (360°)6.9 mphOvercast
5:30 AM24.8 °F19.4 °F80 %29.80 in5.6 miNorth (10°)5.8 mphOvercast
6:00 AM24.8 °F19.4 °F80 %29.80 in5.0 miNorth (10°)5.8 mphOvercast
6:30 AM24.8 °F19.4 °F80 %29.80 in5.0 miNorth (360°)6.9 mphOvercast
7:00 AM24.8 °F19.4 °F80 %29.80 in4.3 miNorth (360°)5.8 mphOvercast
7:30 AM24.8 °F19.4 °F80 %29.80 in4.3 miNorth (10°)5.8 mphOvercast
8:00 AM24.8 °F19.4 °F80 %29.80 in5.6 miNNW (340°)9.2 mphOvercast
8:30 AM24.8 °F19.4 °F80 %29.80 in5.0 miNorth (350°)6.9 mphOvercast
9:00 AM24.8 °F19.4 °F80 %29.80 in5.0 miNorth (10°)3.5 mphOvercast
9:30 AM24.8 °F19.4 °F80 %29.80 in5.0 miNorth (10°)4.6 mphOvercast
10:00 AM24.8 °F19.4 °F80 %29.80 in5.0 miVariable2.3 mphOvercast
10:30 AM26.6 °F19.4 °F74 %29.77 in4.3 miVariable2.3 mphOvercast
11:00 AM26.6 °F19.4 °F74 %29.77 in3.7 miCalmMostly Cloudy
11:30 AM26.6 °F19.4 °F74 %29.74 in3.7 miCalmMostly Cloudy
12:00 PM28.4 °F19.4 °F69 %29.74 in4.3 miCalmOvercast
12:30 PM28.4 °F19.4 °F69 %29.71 in4.3 miCalm
1:00 PM28.4 °F19.4 °F69 %29.71 in5.0 miCalmOvercast
1:30 PM28.4 °F19.4 °F69 %29.68 in6.2 miSE (130°)3.5 mphOvercast
2:00 PM28.4 °F19.4 °F69 %29.68 in6.2 miSE (130°)3.5 mph
2:30 PM30.2 °F19.4 °F64 %29.65 in6.2 miVariable2.3 mph
3:00 PM30.2 °F19.4 °F64 %29.65 in6.2 miESE (120°)3.5 mph
3:30 PM28.4 °F19.4 °F69 %29.62 in5.0 miENE (70°)3.5 mph
4:00 PM28.4 °F19.4 °F69 %29.62 in5.0 miCalm
4:30 PM28.4 °F19.4 °F69 %29.59 in5.0 miCalm
5:00 PM28.4 °F19.4 °F69 %29.59 in5.6 miSE (140°)3.5 mph
5:30 PM28.4 °F21.2 °F74 %29.56 in5.0 miESE (110°)3.5 mph
6:00 PM28.4 °F21.2 °F74 %29.56 in4.3 miEast (80°)3.5 mph
6:30 PM28.4 °F21.2 °F74 %29.56 in4.3 miEast (90°)2.3 mph
7:00 PM28.4 °F21.2 °F74 %29.53 in3.7 miEast (80°)3.5 mph
7:30 PM28.4 °F21.2 °F74 %29.53 in3.7 miCalm
8:00 PM28.4 °F21.2 °F74 %29.50 in3.7 miEast (90°)2.3 mph
8:30 PM28.4 °F23.0 °F80 %29.50 in3.1 miVariable2.3 mphMist
9:00 PM28.4 °F21.2 °F74 %29.47 in5.0 miSouth (190°)3.5 mph
9:30 PM30.2 °F21.2 °F69 %29.47 in5.6 miSouth (190°)4.6 mphOvercast
10:00 PM30.2 °F21.2 °F69 %29.47 in4.3 miSouth (170°)3.5 mphOvercast
10:30 PM30.2 °F23.0 °F75 %29.47 in3.7 miSouth (180°)4.6 mphSnowLight Snow
11:00 PM30.2 °F24.8 °F80 %29.47 in3.7 miVariable3.5 mphRainRain
11:30 PM30.2 °F24.8 °F80 %29.47 in3.7 miCalmSnowLight Snow
Hourly data recorded from LFLY, located miles away from Lyon, France







STORIES FROM OUR PARTNERS